Regional Weather Roundup
Issued by NWS

Home | Current Version | Previous Version | Text Only | Print | Product List | Glossary Off
Versions: 1 2 3 4 5 6 7 8 9 10 11 12 13 14 15 16 17 18 19 20 21 22 23 24 25 26 27 28 29 30 31 32 33 34 35 36 37 38 39 40 41 42 43 44 45 46 47 48 49 50

000
ASUS43 KMKX 061000
RWRWI

WISCONSIN REGIONAL WEATHER ROUNDUP
NATIONAL WEATHER SERVICE MILWAUKEE/SULLIVAN WI
500 AM CDT FRI MAY 06 2016

NOTE: "FAIR" INDICATES FEW OR NO CLOUDS BELOW 12,000 FEET WITH NO
SIGNIFICANT WEATHER AND/OR OBSTRUCTIONS TO VISIBILITY.

WIZ001-002-006>008-014>016-023>028-061100-
NORTHWEST WISCONSIN

CITY           SKY/WX    TMP DP  RH WIND       PRES   REMARKS
SUPERIOR ARPT  CLEAR     42  38  85 SW7       29.77S
ASHLAND        CLEAR     62  41  46 SW9       29.76S
HAYWARD        CLEAR     45  39  79 CALM      29.83R
SIREN          CLEAR     61  43  51 W8        29.83S
CUMBERLAND     CLEAR     54  39  58 SW5       29.84S
RICE LAKE      CLEAR     47  42  80 CALM      29.86R
CHETEK         CLEAR     45  42  90 CALM      29.85R
LADYSMITH      CLEAR     49  39  68 CALM      29.86S
EAU CLAIRE     NOT AVBL
MENOMONIE      CLEAR     48  42  78 E3        29.85S
NEW RICHMOND   CLEAR     50  42  76 CALM      29.86S
OSCEOLA        CLEAR     51  44  77 CALM      29.87S
$$

WIZ003>005-009-010-017-018-061100-
NORTH CENTRAL WISCONSIN

CITY           SKY/WX    TMP DP  RH WIND       PRES   REMARKS
MANITOWISH WTR PTCLDY    46  41  82 S3        29.82F
ARBOR VITAE    PTCLDY    55  40  57 SW3       29.83S
WOODRUFF       PTCLDY    55  40  57 SW3       29.83S
RHINELANDER    PTCLDY    54  37  52 SW9       29.85F
EAGLE RIVER    PTCLDY    50  36  57 S3        29.84S
LAND O LAKES   LGT RAIN  49  39  66 CALM      29.84S
PHILLIPS       PTCLDY    52  38  59 SW5       29.83S
TOMAHAWK       PTCLDY    48  39  71 S3        29.85F
MEDFORD        CLEAR     53  39  59 SW7       29.86S
MERRILL        PTCLDY    39  39 100 NE6       29.88S WCI  35
$$

WIZ029-030-035-036-043>047-061100-
CENTRAL WISCONSIN

CITY           SKY/WX    TMP DP  RH WIND       PRES   REMARKS
WAUSAU         CLEAR     54  40  59 S3        29.86S
MOSINEE        CLEAR     46  39  76 SW3       29.88F
MARSHFIELD     CLEAR     50  38  63 SW6       29.86F
STEVENS POINT  CLEAR     46  37  71 S3        29.88F
WAUPACA        MOCLDY    47  41  78 CALM      29.90S
WAUTOMA        PTCLDY    45  40  82 CALM      29.90F
WISC RAPIDS    CLEAR     49  38  65 S3        29.89F
CAMP DOUGLAS   NOT AVBL
$$

WIZ011>013-019>022-031-037>040-048>050-061100-
NORTHEAST WISCONSIN

CITY           SKY/WX    TMP DP  RH WIND       PRES   REMARKS
ANTIGO         CLEAR     49  38  65 CALM      29.87S
SHAWANO        CLEAR     51  37  57 CALM      29.89S
OCONTO         CLEAR     48  46  95 S5        29.88F
STURGEON BAY   CLEAR     46  37  71 S6        29.91S
GREEN BAY      CLOUDY    49  42  77 S6        29.89F
MANITOWOC      NOT AVBL
APPLETON       CLOUDY    46  36  66 SW5       29.89S
CLINTONVILLE   CLOUDY    46  37  71 CALM      29.88F
OSHKOSH        CLOUDY    49  38  65 SW8       29.90F
$$

WIZ032>034-041-042-053>061-061100-
SOUTHWEST WISCONSIN

CITY           SKY/WX    TMP DP  RH WIND       PRES   REMARKS
LA CROSSE      PTCLDY    55  44  66 S6        29.89S
SPARTA         CLEAR     42  39  90 CALM      29.90S FOG
VIROQUA        CLEAR     53  37  55 S7        29.91F
BOSCOBEL       CLEAR     43  40  89 CALM      29.93F
PRAIRIE DU CHI CLEAR     48  39  69 CALM      29.92F
PLATTEVILLE    CLEAR     50  39  64 S7        29.95S
$$

WIZ056-057-062-063-064-067-068-061100-
SOUTH CENTRAL WISCONSIN

CITY           SKY/WX    TMP DP  RH WIND       PRES   REMARKS
REEDSBURG      CLOUDY    49  42  77 CALM      29.91F
BARABOO/DELLS  CLOUDY    52  38  58 SW6       29.91F
LONE ROCK      NOT AVBL
MINERAL POINT  MOCLDY    52  36  54 S5        29.95S
MADISON        CLOUDY    51  38  60 S6        29.94S
MIDDLETON      CLOUDY    51  39  63 S3        29.94F
WATERTOWN      CLOUDY    42  42  99 CALM      29.94S
MONROE         CLEAR     50  37  62 SW9       29.95S
JANESVILLE     CLOUDY    46  41  81 CALM      29.95F
$$

WIZ051-052-058>065-066-070>072-061100-
SOUTHEAST WISCONSIN

CITY           SKY/WX    TMP DP  RH WIND       PRES   REMARKS
MILWAUKEE      MOCLDY    52  39  61 W3        29.94S
WAUKESHA       CLOUDY    46  39  76 CALM      29.95S
MILWAUKEE/TIMM CLOUDY    48  39  71 SW6       29.95S
RACINE         CLOUDY    48  39  71 SW3       29.95F
BURLINGTON     CLOUDY    46  42  85 SW3       29.95S
KENOSHA        MOCLDY    46  41  82 W6        29.95S
FOND DU LAC    CLOUDY    47  38  71 S8        29.92S
SHEBOYGAN      CLOUDY    48  41  76 S3        29.92F
WEST BEND      CLOUDY    46  41  81 CALM      29.94R
JUNEAU         CLOUDY    44  38  81 SW3       29.94F
$$

LSZ147-162-061100-
LAKE SUPERIOR

STATION/POSITION TIME  TEMP    WIND        PRES    WAVE
                       AIR SEA DIR/SP/G            HT/PER
                 (UTC) (F)     (DEG/KT/KT) (MB)    (FT/S)
W MID LAKE BUOY  0850   41 37  210/  6/  6 1007.5R   1
DEVILS ISLAND    0900   41     260/  6/  7 1007.7F
SAXON HARBOR     0900   64     180/ 11/ 20 1007.1F
$$

LMZ867-665-643>646-061100-
LAKE MICHIGAN

STATION/POSITION TIME  TEMP    WIND        PRES    WAVE
                       AIR SEA DIR/SP/G            HT/PER
                 (UTC) (F)     (DEG/KT/KT) (MB)    (FT/S)
CHAMBERS ISLAND  0940   52     180/  8/ 11 1011.9F
N MID LAKE BUOY  0850   41 39  190/ 10/ 10 1012.5F   1
NORTHPORT PIER   0900   46     150/  5/  6 1011.9F
ALGOMA LAKESHORE 0915          200/  9/ 11   N/A
KEWAUNEE LAKESHO 0900   44     180/  7/  8 1012.0F
SHEBOYGAN LAKESH 0900   47     140/ 10/ 10 1013.7S
PORT WASHINGTON  0900   51     260/  2/  4 1014.2S
S MID LAKE BUOY  0850   42 40  220/  6/  6 1014.4F   1/ 5
KENOSHA   LAKESH 0900   47     170/  5/  5 1014.6R
$$

TC  - TEMPERATURE IN CELSIUS
VSB - VISIBILITY IN STATUTE MILES
WCI - WIND CHILL INDEX
HX  - HEAT INDEX





USA.gov is the U.S. government's official web portal to all federal, state and local government web resources and services.